TimeCST,TemperatureF,Dew PointF,Humidity,Sea Level PressureIn,VisibilityMPH,Wind Direction,Wind SpeedMPH,Gust SpeedMPH,PrecipitationIn,Events,Conditions,WindDirDegrees,DateUTC
12:08 AM,26.6,24.8,93,29.93,2.5,East,5.8,-,0.01,Snow,Light Snow,90,2013-03-05 06:08:00
1:18 AM,26.6,24.8,93,29.93,1.5,East,5.8,-,0.00,Snow,Light Snow,90,2013-03-05 07:18:00
1:34 AM,26.6,24.8,93,29.93,2.0,East,3.5,-,0.00,Snow,Light Snow,90,2013-03-05 07:34:00
1:51 AM,26.6,24.8,93,29.92,2.0,East,4.6,-,0.00,Snow,Light Snow,80,2013-03-05 07:51:00
1:53 AM,26.1,25.0,96,29.96,2.5,East,5.8,-,0.00,Snow,Light Snow,80,2013-03-05 07:53:00
2:05 AM,26.6,24.8,93,29.92,2.0,East,4.6,-,0.00,Snow,Light Snow,80,2013-03-05 08:05:00
2:36 AM,26.6,24.8,93,29.92,1.5,Calm,Calm,-,0.01,Snow,Light Snow,0,2013-03-05 08:36:00
2:53 AM,26.1,24.1,92,29.95,1.2,Calm,Calm,-,0.02,Snow,Light Snow,0,2013-03-05 08:53:00
3:53 AM,26.1,25.0,96,29.96,1.0,WNW,5.8,-,0.02,Snow,Light Snow,290,2013-03-05 09:53:00
4:29 AM,26.6,24.8,93,29.92,1.2,NW,4.6,-,0.01,Snow,Light Snow,310,2013-03-05 10:29:00
4:53 AM,26.1,25.0,96,29.95,1.5,NW,3.5,-,0.02,Snow,Light Snow,320,2013-03-05 10:53:00
5:09 AM,26.6,24.8,93,29.92,2.0,WNW,3.5,-,0.00,Snow,Light Snow,290,2013-03-05 11:09:00
5:23 AM,24.8,24.8,100,29.93,2.5,WNW,4.6,-,0.00,,Overcast,290,2013-03-05 11:23:00
5:38 AM,24.8,24.8,100,29.93,2.5,WNW,4.6,-,0.00,Snow,Light Snow,290,2013-03-05 11:38:00
5:53 AM,25.0,24.1,96,29.97,2.0,West,5.8,-,0.00,Snow,Light Snow,280,2013-03-05 11:53:00
6:02 AM,24.8,24.8,100,29.93,2.5,West,5.8,-,0.00,Snow,Light Snow,280,2013-03-05 12:02:00
6:10 AM,26.6,24.8,93,29.93,3.0,WNW,9.2,-,0.00,,Overcast,290,2013-03-05 12:10:00
6:22 AM,26.6,24.8,93,29.93,5.0,WNW,13.8,-,0.00,Snow,Light Snow,300,2013-03-05 12:22:00
6:43 AM,26.6,24.8,93,29.94,2.0,WNW,17.3,-,0.00,Snow,Light Snow,300,2013-03-05 12:43:00
7:16 AM,26.6,24.8,93,29.94,0.8,WNW,18.4,-,0.00,Snow,Light Snow,300,2013-03-05 13:16:00
7:38 AM,26.6,24.8,93,29.95,1.0,WNW,19.6,-,0.00,Snow,Light Snow,300,2013-03-05 13:38:00
7:48 AM,26.6,24.8,93,29.95,1.8,NW,19.6,-,0.00,Snow,Light Snow,310,2013-03-05 13:48:00
7:53 AM,26.1,23.0,88,29.99,2.5,NW,18.4,-,0.00,Snow,Light Snow,310,2013-03-05 13:53:00
8:01 AM,26.6,24.8,93,29.95,5.0,WNW,16.1,-,0.00,Snow,Light Snow,300,2013-03-05 14:01:00
8:53 AM,26.1,21.0,81,30.00,8.0,WNW,21.9,-,0.00,,Overcast,290,2013-03-05 14:53:00
9:53 AM,26.1,21.9,84,29.99,3.0,WNW,21.9,-,0.00,Snow,Light Snow,290,2013-03-05 15:53:00
10:07 AM,26.6,21.2,80,29.95,2.5,WNW,21.9,-,0.00,Snow,Light Snow,300,2013-03-05 16:07:00
10:26 AM,26.6,21.2,80,29.95,4.0,WNW,18.4,-,0.00,Snow,Light Snow,300,2013-03-05 16:26:00
10:53 AM,27.0,23.0,85,29.99,5.0,WNW,19.6,-,0.00,Snow,Light Snow,300,2013-03-05 16:53:00
11:53 AM,27.0,23.0,85,30.00,5.0,NW,17.3,-,0.00,Snow,Light Snow,310,2013-03-05 17:53:00
12:53 PM,28.0,24.1,85,30.00,3.0,WNW,19.6,-,0.00,Snow,Light Snow,300,2013-03-05 18:53:00
1:06 PM,28.4,24.8,86,29.97,2.5,WNW,20.7,-,0.00,Snow,Light Snow,300,2013-03-05 19:06:00
1:31 PM,28.4,24.8,86,29.97,2.0,WNW,19.6,-,0.00,Snow,Light Snow,300,2013-03-05 19:31:00
1:43 PM,28.4,24.8,86,29.97,1.8,NW,19.6,-,0.00,Snow,Light Snow,310,2013-03-05 19:43:00
1:53 PM,28.9,25.0,85,30.01,2.0,NW,19.6,-,0.00,Snow,Light Snow,310,2013-03-05 19:53:00
2:36 PM,28.4,24.8,86,29.99,2.5,NW,19.6,-,0.00,Snow,Light Snow,310,2013-03-05 20:36:00
2:45 PM,28.4,24.8,86,30.00,4.0,NW,20.7,-,0.00,Snow,Light Snow,310,2013-03-05 20:45:00
2:53 PM,28.9,25.0,85,30.04,6.0,NW,19.6,-,0.00,,Overcast,310,2013-03-05 20:53:00
3:53 PM,30.0,25.0,82,30.07,6.0,NNW,18.4,-,N/A,,Haze,330,2013-03-05 21:53:00
4:50 PM,28.4,24.8,86,30.06,2.0,NNW,19.6,-,0.00,Snow,Light Snow,330,2013-03-05 22:50:00
4:53 PM,28.9,25.0,85,30.09,2.5,NNW,20.7,-,0.00,Snow,Light Snow,330,2013-03-05 22:53:00
5:01 PM,28.4,24.8,86,30.06,4.0,NNW,23.0,-,0.00,,Haze,330,2013-03-05 23:01:00
5:08 PM,28.4,24.8,86,30.06,5.0,NNW,20.7,28.8,0.00,,Haze,330,2013-03-05 23:08:00
5:46 PM,28.4,24.8,86,30.09,8.0,NNW,20.7,-,0.00,,Overcast,330,2013-03-05 23:46:00
5:53 PM,28.0,23.0,81,30.13,8.0,NNW,19.6,-,0.00,,Overcast,330,2013-03-05 23:53:00
6:53 PM,27.0,23.0,85,30.17,8.0,NNW,18.4,26.5,N/A,,Overcast,330,2013-03-06 00:53:00
7:53 PM,27.0,21.9,81,30.19,9.0,NNW,16.1,-,N/A,,Overcast,330,2013-03-06 01:53:00
8:33 PM,26.6,21.2,80,30.17,10.0,NW,16.1,-,N/A,,Overcast,320,2013-03-06 02:33:00
8:53 PM,26.1,21.9,84,30.22,9.0,NW,18.4,-,N/A,,Overcast,320,2013-03-06 02:53:00
9:34 PM,26.6,21.2,80,30.20,10.0,NNW,15.0,-,N/A,,Overcast,330,2013-03-06 03:34:00
9:53 PM,26.1,21.9,84,30.25,9.0,NNW,16.1,-,N/A,,Overcast,330,2013-03-06 03:53:00
10:06 PM,26.6,21.2,80,30.21,10.0,NNW,15.0,-,N/A,,Overcast,330,2013-03-06 04:06:00
10:53 PM,26.1,21.9,84,30.25,10.0,NNW,11.5,-,N/A,,Overcast,330,2013-03-06 04:53:00
11:53 PM,24.1,19.9,84,30.28,10.0,NW,12.7,-,N/A,,Scattered Clouds,320,2013-03-06 05:53:00